Theta_e
349 349 347 347 346 346 345 344 345 345 345 348 350 350 349 348 348 348 346 345 345 346 346 346 346 346 346 345 345 345 347 347 347 346 346 345 345 345 344 343 342 336 328 323 323 323 322 325 333 339 341 342 342 343 343 343 343 344 343 343 342 342 342 343 342 342 341 341 340 340 339 339 339 339
349 349 348 348 347 347 345 344 343 344 345 347 349 350 350 349 349 348 348 346 345 345 346 346 346 347 347 346 345 345 346 346 347 347 346 346 345 345 345 344 344 342 337 329 325 325 326 329 334 338 342 343 343 343 343 344 344 344 344 344 344 343 343 343 343 342 342 342 341 340 339 340 340 340
349 349 349 349 348 347 347 345 345 345 346 347 349 351 351 350 350 349 348 348 345 344 345 345 346 346 347 347 346 346 345 346 346 347 347 346 345 345 346 346 345 344 343 338 333 330 328 329 332 337 341 343 343 343 343 342 343 343 343 344 344 344 344 343 343 342 342 342 341 341 341 342 342 341
349 349 349 349 348 348 348 347 346 346 346 347 347 350 351 351 350 349 348 348 346 346 346 345 345 345 346 347 346 346 346 345 345 345 346 347 346 346 346 347 347 346 345 343 341 339 336 331 329 330 332 336 339 340 341 342 342 342 342 342 342 343 343 342 342 342 342 342 342 341 341 342 342 342
349 349 350 349 349 349 349 348 347 347 347 347 347 348 350 350 350 349 349 349 348 346 346 346 345 345 345 346 346 346 346 346 345 344 345 346 347 347 347 346 347 347 347 345 343 342 341 339 337 334 332 331 331 331 333 335 337 340 341 341 342 341 341 341 341 341 341 340 340 340 339 339 338 337
349 349 349 349 349 349 349 348 348 348 347 347 347 347 348 349 349 349 350 350 349 347 347 346 346 345 345 345 346 346 346 346 345 345 345 345 347 348 348 348 347 347 346 347 346 344 343 341 341 341 340 338 336 333 331 330 331 332 333 335 335 336 336 337 337 337 337 338 339 338 335 331 328 327
348 349 349 349 349 349 349 348 348 348 348 348 348 348 348 348 349 349 350 350 350 349 348 348 347 346 345 345 345 345 345 345 346 346 346 346 346 347 348 349 348 347 346 346 346 347 346 344 342 342 342 342 341 341 340 338 337 335 333 330 329 328 328 329 329 329 329 330 331 330 327 324 323 323
349 349 349 349 349 349 348 348 348 348 348 348 348 347 348 348 349 349 350 350 350 349 349 349 348 347 346 345 345 345 345 345 345 346 346 346 345 346 347 348 349 348 348 347 346 346 347 346 344 343 343 344 343 343 343 342 342 341 340 337 334 331 330 329 328 326 325 325 324 324 324 325 326 326
349 349 349 348 349 348 348 348 347 348 348 348 348 348 348 347 348 349 349 349 349 350 349 349 349 348 347 347 346 345 345 345 345 346 346 347 347 347 347 348 348 349 349 348 347 346 347 348 347 346 345 344 345 345 345 344 343 343 342 342 340 338 336 335 335 334 332 330 328 328 330 332 333 332
349 349 349 348 348 348 348 348 347 348 348 348 349 349 348 348 347 348 348 348 349 350 350 350 349 349 348 348 347 347 346 346 346 346 346 347 348 348 347 347 348 349 350 349 348 348 347 348 348 348 346 345 346 346 346 346 345 343 343 343 342 341 340 339 340 340 339 337 337 337 338 339 339 339
349 349 348 348 349 348 348 348 347 348 348 348 348 348 349 349 348 348 348 348 349 350 351 350 350 350 349 349 348 348 348 347 347 347 346 347 347 347 347 348 348 348 349 349 348 348 347 347 348 348 348 347 347 347 346 345 345 345 344 343 343 343 343 342 342 342 341 341 341 341 342 342 342 341
348 349 349 349 349 348 348 348 348 348 348 348 348 348 349 349 348 349 349 349 349 349 350 350 350 349 349 349 349 349 348 348 347 347 347 347 347 347 347 347 348 348 348 348 347 347 347 347 347 348 348 348 348 347 346 345 344 344 344 344 344 343 343 343 342 342 342 341 341 341 341 341 341 342
348 349 350 349 349 348 348 348 347 348 349 349 349 349 349 349 349 349 349 349 349 349 350 350 349 349 349 349 348 348 348 348 348 348 348 347 348 347 347 347 347 347 346 346 346 346 347 347 347 347 348 348 347 347 346 345 344 344 344 344 344 343 343 343 342 342 341 341 341 341 341 340 340 341
349 350 350 350 349 349 349 348 348 349 349 349 349 349 349 349 350 350 349 349 349 349 349 350 349 349 349 348 348 347 347 347 347 347 348 348 348 348 348 347 347 346 345 344 344 345 347 347 348 347 347 348 347 346 346 346 344 344 344 344 344 344 343 343 342 341 341 340 341 342 342 342 341 340
349 351 350 349 349 349 349 349 348 348 349 349 348 348 349 350 350 351 350 350 350 349 349 349 349 349 348 348 347 347 346 346 346 346 347 347 348 348 348 347 346 346 345 344 344 345 346 347 347 348 348 348 347 347 347 346 345 344 344 344 345 345 344 343 342 342 342 342 342 342 342 342 341 341
350 350 350 349 350 350 350 349 348 348 348 349 349 349 349 349 350 350 349 349 349 349 349 350 349 348 347 347 347 347 347 346 346 347 347 347 347 347 347 346 346 346 346 345 345 344 345 345 346 347 348 348 348 348 347 346 345 345 345 345 345 345 345 344 343 343 342 343 342 341 341 341 340 340
350 350 349 350 350 350 349 349 349 348 348 348 348 348 349 349 349 349 349 349 349 349 350 350 349 348 348 347 347 347 347 347 347 346 346 346 346 346 346 346 346 346 346 346 346 345 344 344 345 346 346 347 347 347 346 346 346 346 345 345 345 345 344 343 343 342 342 342 341 341 341 341 340 340
350 350 350 350 350 350 349 349 348 348 348 347 346 346 346 346 347 348 349 349 349 349 350 349 349 348 348 348 347 347 347 347 347 347 347 347 347 346 346 346 346 346 346 346 347 346 345 345 345 345 345 345 345 345 345 345 345 344 344 344 344 344 344 344 342 342 342 341 341 341 341 341 341 341
350 350 350 349 349 349 348 348 348 347 347 347 346 345 345 345 345 346 348 349 350 349 350 349 349 349 349 348 347 346 346 345 345 346 346 347 347 346 346 346 346 346 345 346 346 345 345 345 345 345 345 345 344 343 343 343 344 344 344 343 343 343 343 344 343 342 341 340 340 341 341 341 341 341
349 349 348 347 346 347 347 347 347 347 346 345 345 344 344 344 344 344 344 345 347 348 348 348 348 348 348 346 344 342 340 339 340 342 343 344 345 346 346 345 345 345 345 345 345 345 345 345 345 346 345 345 344 342 342 344 344 343 343 343 342 342 343 343 343 342 341 340 341 341 341 341 340 340
347 345 343 342 341 343 345 346 346 345 344 344 345 344 344 343 342 342 342 342 342 344 344 346 347 347 346 344 342 340 338 337 337 339 340 341 343 344 344 344 344 344 344 344 344 344 344 344 344 345 345 344 343 343 344 344 343 342 341 341 342 342 342 342 341 341 340 340 340 339 339 339 339 338
344 343 341 339 337 338 340 342 343 344 345 346 345 343 343 343 342 340 339 338 338 338 339 341 342 343 344 344 342 340 338 336 337 339 340 341 342 343 343 343 344 343 343 343 343 343 344 343 343 343 343 342 341 341 341 341 341 341 342 342 342 341 341 340 339 339 338 338 339 339 338 338 338 337
340 339 337 335 334 334 335 338 342 345 346 345 343 342 341 340 337 334 333 332 332 333 333 334 335 336 337 338 337 336 335 337 339 341 341 341 341 342 342 343 343 343 343 343 343 342 342 342 341 341 341 342 341 341 341 341 342 341 341 341 340 338 338 339 338 337 337 337 338 338 337 337 337 336
331 330 329 329 330 332 334 338 343 344 342 341 340 338 336 334 332 331 331 331 332 331 332 332 332 332 333 333 333 333 335 338 340 341 339 339 340 341 343 344 342 342 343 343 342 342 341 340 339 338 340 342 342 341 341 341 340 340 339 339 339 337 337 338 339 338 337 336 335 336 336 336 335 334
325 325 325 326 328 330 333 335 337 338 336 335 334 333 333 333 333 332 332 332 332 332 332 332 332 333 333 334 333 333 334 337 339 339 339 340 342 343 344 343 341 340 340 341 340 340 339 338 338 337 339 340 341 340 340 340 339 339 339 338 338 338 337 337 337 337 335 334 334 335 335 334 333 332
325 325 325 326 328 330 331 332 332 333 333 332 332 333 333 333 332 332 332 332 332 333 333 334 334 335 334 334 334 335 337 338 338 340 341 341 343 343 342 340 339 339 339 339 339 340 339 338 337 338 338 339 339 338 338 338 338 338 337 337 337 337 337 336 335 335 334 333 334 334 334 332 331 331
324 325 326 328 329 330 331 331 332 332 332 332 332 333 332 332 332 332 333 333 333 334 335 335 336 335 335 336 336 336 339 340 339 340 341 341 341 340 340 339 339 339 339 339 340 340 339 338 337 337 337 337 338 338 337 336 336 336 336 337 337 336 336 335 335 334 334 333 333 333 332 331 331 331
327 327 328 329 329 330 331 331 331 332 333 333 333 333 332 332 332 332 332 333 333 333 333 334 334 334 336 338 336 336 339 339 337 337 339 340 339 339 338 338 337 337 337 337 338 339 339 339 337 337 337 337 337 337 337 336 336 336 335 335 336 336 335 334 334 334 333 333 333 332 332 331 330 330
330 330 331 331 331 331 332 332 333 333 333 333 333 332 332 331 331 331 331 332 332 332 334 335 334 334 337 338 335 334 337 338 336 336 337 338 337 336 335 334 334 335 335 335 337 339 338 338 337 336 336 336 335 334 334 335 336 335 334 334 334 335 335 334 334 333 332 332 332 331 331 330 329 329
332 332 332 332 332 333 332 333 333 333 333 332 331 331 330 330 331 331 331 332 333 334 336 336 335 337 340 337 334 335 336 336 336 337 337 336 336 335 335 334 333 333 333 334 336 337 336 335 335 334 334 334 333 332 333 334 335 334 333 333 334 334 333 333 333 332 331 331 330 330 330 329 329 328
332 332 332 333 333 333 333 334 333 333 332 331 329 329 329 329 330 330 331 333 333 334 335 335 335 337 338 336 334 335 335 335 336 336 336 336 336 335 335 335 333 333 333 333 334 333 333 333 332 332 333 333 332 331 331 332 333 334 334 333 333 333 332 332 332 331 330 330 329 328 329 328 328 327
332 332 333 334 334 334 333 333 333 332 331 329 328 328 328 328 329 330 330 331 332 332 333 333 333 335 337 336 336 336 336 335 336 336 336 335 334 333 332 332 332 332 332 332 332 332 331 330 330 331 332 331 330 331 331 332 332 332 332 332 332 332 332 331 330 329 329 329 328 328 328 327 326 326
330 331 333 334 334 333 333 332 332 331 329 328 327 327 327 327 328 328 329 330 330 331 331 331 331 333 335 337 336 336 334 333 332 333 333 331 330 330 331 331 331 332 331 331 332 332 331 331 331 331 330 330 330 330 331 331 331 331 331 331 331 331 331 330 330 329 328 328 327 327 327 326 325 325
329 330 332 333 333 332 332 331 331 329 328 327 327 327 328 327 327 326 327 328 329 330 331 331 331 332 333 333 333 333 332 331 331 330 330 330 330 331 331 331 331 332 331 330 331 332 331 330 331 330 331 332 331 331 331 331 331 331 331 331 331 330 330 329 330 329 328 327 326 326 325 325 324 323
329 329 330 332 332 332 331 331 330 328 328 328 328 328 328 327 326 326 326 326 327 327 329 330 331 332 332 331 331 331 331 330 330 330 330 330 330 331 331 330 330 331 331 331 331 331 330 330 331 331 331 330 330 330 330 329 329 329 329 329 329 329 328 328 328 327 327 326 325 325 324 323 323 322
328 328 329 331 331 330 330 330 329 328 328 328 328 329 329 328 326 325 325 326 326 326 326 328 328 329 329 329 329 330 330 329 329 329 329 330 330 330 330 329 329 329 330 329 329 328 328 329 330 330 329 328 328 329 328 327 328 328 327 327 327 327 327 327 326 326 325 325 324 324 323 322 322 321
327 328 329 330 330 329 330 330 328 328 328 327 327 328 329 329 327 326 325 325 326 326 326 326 326 326 326 327 327 327 326 326 325 326 326 326 327 328 328 328 328 328 328 328 328 327 327 327 328 328 327 327 328 328 326 326 326 327 326 326 326 325 325 326 325 325 325 324 324 323 322 322 321 319
327 328 329 329 328 328 329 329 328 328 327 327 327 328 328 329 328 327 326 326 326 327 326 325 324 324 324 324 323 322 322 322 322 322 323 323 324 325 326 326 326 327 327 327 327 327 327 327 328 327 327 327 327 327 326 324 324 324 324 325 325 325 324 325 325 325 324 323 323 322 321 321 319 317
326 327 328 327 327 327 328 328 327 327 327 327 327 327 327 328 328 328 327 326 326 327 327 324 322 323 322 321 322 321 321 321 321 321 321 322 323 324 325 326 326 326 327 327 327 327 328 327 327 328 327 327 327 326 324 322 322 322 322 322 323 323 323 324 324 324 323 323 322 322 321 320 318 316
326 327 326 325 326 327 327 327 327 327 327 327 327 327 327 327 327 327 327 327 326 326 326 324 322 322 323 322 322 323 322 322 322 321 321 321 321 322 323 325 325 326 327 327 327 327 326 326 326 326 326 325 323 322 320 321 320 320 320 321 322 322 322 323 323 323 323 323 322 321 320 319 318 316
325 326 325 324 324 325 326 327 328 328 327 328 328 327 327 327 326 324 325 325 325 326 326 325 323 323 324 324 324 324 324 324 324 323 323 322 322 322 322 323 324 324 325 326 326 325 324 324 324 324 323 322 321 320 319 319 319 318 318 318 320 321 321 321 322 322 322 322 322 321 320 318 317 314
323 325 325 324 324 324 325 326 328 328 328 328 328 328 327 328 326 323 322 323 323 325 326 325 324 323 324 324 324 325 325 325 326 326 325 325 324 323 322 322 322 323 323 324 323 323 323 322 322 322 322 322 321 321 320 319 318 318 318 317 318 318 318 318 318 319 320 320 321 322 321 318 315 312
320 322 323 324 324 324 324 325 326 328 328 328 328 328 328 328 327 325 322 321 321 322 324 325 325 324 324 325 325 326 327 326 326 326 326 327 326 326 325 324 322 322 322 322 323 322 322 321 321 321 321 322 321 321 320 320 319 319 318 317 317 316 316 316 316 315 316 317 319 321 321 318 313 309
317 318 321 323 323 323 324 325 326 327 328 328 327 327 328 328 328 327 325 324 322 321 321 324 326 325 325 326 326 326 326 326 326 326 326 326 326 326 326 326 325 324 323 322 322 322 321 321 321 321 321 321 321 320 320 320 320 320 319 318 317 316 316 316 315 315 314 314 315 316 316 314 310 308
315 316 318 321 323 323 323 325 326 327 328 328 327 327 327 327 327 327 327 326 326 323 322 323 325 326 326 326 326 326 326 326 326 325 325 325 325 324 324 325 325 325 324 323 323 322 322 322 322 322 322 322 321 321 321 321 320 320 319 319 317 317 317 316 316 316 315 314 313 312 311 310 308 309
Wind_Speed
13 13 13 14 15 15 15 16 16 16 15 13 12 12 13 13 11 10 9 8 5 3 2 1 0 2 4 5 6 5 5 5 5 5 5 5 5 5 5 5 5 6 5 4 2 4 6 8 10 10 11 11 11 10 10 10 10 10 10 10 10 10 10 11 11 11 11 11 12 12 12 13 13 14
14 14 14 14 14 13 14 15 15 15 15 13 12 12 13 14 13 11 11 11 9 4 3 3 2 3 5 6 7 6 6 6 5 6 6 6 5 5 5 4 4 5 5 4 3 3 5 7 9 10 10 10 10 10 10 11 11 11 10 10 10 10 11 11 12 12 12 13 13 13 13 13 14 14
15 15 15 15 14 13 13 14 14 14 14 14 13 13 14 15 15 13 12 13 11 6 6 6 6 7 8 8 8 7 6 6 6 6 6 6 6 5 5 5 4 4 4 4 4 4 4 6 8 9 10 10 10 10 10 11 11 11 11 11 11 11 11 12 12 12 12 13 14 14 14 14 14 14
15 15 15 16 14 13 13 13 14 14 14 15 15 15 15 15 15 14 14 15 14 10 9 9 8 9 10 9 9 8 7 7 6 6 7 7 6 6 6 7 6 5 5 5 4 4 4 5 6 8 9 9 10 10 10 10 10 10 11 11 11 12 12 13 13 13 13 14 14 14 13 13 14 14
14 15 15 15 14 13 13 14 14 15 15 15 16 16 16 16 15 15 15 16 17 14 11 11 10 10 10 10 9 9 9 8 8 8 7 7 7 6 6 7 7 7 7 6 6 5 5 5 5 6 7 8 9 9 10 11 11 11 12 12 13 13 14 14 14 14 14 14 14 13 14 15 15 16
14 14 15 15 14 14 14 15 14 15 15 16 16 16 17 17 16 16 16 16 17 17 15 13 11 11 11 11 10 9 9 9 10 9 8 7 7 7 7 8 8 8 8 8 7 6 6 6 6 6 6 7 7 7 8 9 10 11 12 13 14 14 15 15 15 15 15 14 14 14 15 15 16 16
14 15 16 15 14 15 16 15 14 14 15 16 17 17 17 17 17 17 17 17 17 17 16 15 13 12 12 12 11 10 10 10 11 11 9 8 8 8 8 9 9 10 10 9 9 8 7 8 8 7 7 7 7 7 7 8 8 9 10 11 11 12 13 13 13 13 13 14 14 14 14 14 14 13
15 15 16 14 14 16 16 15 14 14 14 15 16 17 17 17 17 17 18 18 18 17 17 16 15 14 13 12 11 11 12 12 13 12 11 10 9 9 9 10 10 10 11 11 10 10 9 9 9 9 8 8 8 8 8 9 9 10 10 10 10 11 11 11 11 11 11 12 12 12 12 12 12 12
16 15 15 14 14 15 16 15 14 14 14 14 15 16 17 17 18 18 18 17 17 17 17 17 17 16 15 14 12 12 13 14 14 14 13 13 12 11 11 11 11 11 11 12 12 12 11 10 10 10 10 10 9 9 9 10 10 10 11 11 11 11 11 11 11 11 11 11 11 12 12 12 12 13
16 16 16 15 15 15 15 14 14 14 14 14 15 15 16 17 18 18 17 17 18 18 17 17 18 18 17 16 15 14 14 15 15 15 15 15 15 14 14 14 13 12 12 12 12 13 13 13 12 12 13 12 11 11 10 11 11 11 11 11 12 12 12 12 12 12 12 12 12 12 13 13 14 14
16 16 16 16 15 14 14 14 14 14 15 15 15 15 15 16 17 18 17 18 19 19 18 18 18 18 18 18 17 17 16 17 17 17 17 16 15 15 15 16 15 14 13 13 13 14 14 14 14 14 14 14 14 13 12 11 11 12 12 12 12 12 13 13 13 13 13 13 14 14 15 16 16 16
16 15 15 15 14 14 15 15 15 14 15 14 14 14 14 15 16 16 16 17 19 19 18 18 18 19 19 18 18 18 18 18 18 18 18 17 16 15 16 17 16 15 14 14 14 15 16 16 15 16 16 17 17 16 14 12 11 11 12 13 14 14 14 14 14 14 14 14 14 14 16 17 18 19
15 15 15 15 15 15 15 15 15 14 13 13 13 13 15 15 16 16 16 17 18 18 18 17 18 19 19 19 18 18 18 17 17 17 17 17 17 16 16 16 15 15 15 15 15 16 16 16 16 16 17 18 18 17 15 13 12 12 13 14 15 17 16 15 15 15 16 16 15 14 15 16 17 19
15 14 15 16 15 15 15 14 14 14 13 13 13 14 15 15 16 16 17 17 17 17 17 17 18 19 19 18 18 18 18 17 17 17 17 17 16 16 17 16 15 15 15 15 15 14 14 15 16 17 17 17 18 18 16 15 15 14 15 16 17 18 18 17 16 16 17 16 15 15 15 15 16 17
14 14 15 15 15 14 14 15 14 14 13 12 12 13 14 14 15 15 15 16 17 17 18 17 17 18 19 18 18 18 18 17 17 17 17 17 17 17 17 17 16 15 15 15 14 13 12 13 14 14 15 15 17 18 17 17 16 15 15 17 18 18 19 19 18 18 18 17 17 17 17 15 15 16
13 13 14 14 14 14 14 14 14 14 13 12 12 12 13 13 13 14 14 15 16 17 17 18 18 18 18 18 17 17 17 17 16 17 17 18 18 18 18 18 17 16 16 16 16 15 14 13 14 13 13 14 15 17 17 17 17 16 16 17 18 18 19 20 20 20 20 20 21 20 18 16 16 17
13 13 13 13 13 13 14 14 13 13 12 12 12 12 13 13 13 13 13 14 15 16 16 17 17 16 16 17 16 15 16 16 16 17 17 17 17 18 18 18 18 18 18 18 18 18 17 15 15 14 14 14 16 17 17 16 17 18 18 18 19 19 19 20 20 21 21 22 22 21 19 17 17 19
13 13 13 13 13 13 15 15 14 13 12 12 12 13 13 13 12 12 12 13 15 15 16 16 16 15 15 15 15 14 15 16 16 17 17 17 17 18 18 18 19 20 20 18 18 19 19 18 17 17 16 15 16 18 17 16 16 18 18 18 19 20 20 19 19 20 21 21 21 20 19 18 18 19
14 14 14 15 15 16 17 17 16 15 14 14 14 14 13 12 11 11 11 12 13 13 14 14 15 14 14 14 13 12 13 14 15 16 17 17 18 18 18 18 19 19 19 18 17 19 19 18 18 18 17 17 17 17 16 15 16 17 19 19 19 20 21 20 20 20 20 19 19 19 19 19 19 19
14 15 15 16 17 17 17 17 17 17 16 16 15 13 13 12 11 10 11 11 12 12 13 14 14 13 13 12 12 12 13 15 16 16 17 17 18 18 18 18 17 17 16 15 14 15 16 15 15 16 17 17 17 16 16 16 16 17 18 18 18 20 21 21 21 20 19 19 19 19 19 18 18 17
15 16 17 18 18 18 17 17 17 17 16 15 15 14 14 14 14 14 14 14 15 15 16 16 15 15 15 15 16 16 16 17 17 18 17 17 17 17 16 15 15 15 14 13 12 12 12 12 12 13 15 15 15 15 15 15 15 16 16 17 18 20 21 21 20 20 19 19 19 18 18 17 15 14
19 20 21 21 19 18 18 17 16 15 14 14 16 17 18 19 18 18 18 18 18 19 21 21 21 20 20 20 20 20 19 18 17 17 17 16 15 15 15 14 14 14 13 11 10 9 10 10 9 10 11 12 12 12 12 13 13 13 15 16 17 17 17 17 18 17 17 18 17 16 15 14 12 11
22 22 21 20 17 16 16 14 13 14 15 16 17 18 19 20 21 20 20 20 19 20 21 21 22 22 22 22 21 20 19 17 17 16 15 15 15 14 13 12 11 11 11 10 10 10 11 11 10 9 10 11 11 10 10 11 12 13 13 13 13 12 11 11 12 13 13 14 14 13 11 10 9 8
20 19 18 17 16 15 13 12 13 15 17 18 18 19 19 21 21 20 20 19 19 19 18 18 19 18 18 18 17 17 17 16 16 16 15 15 14 12 11 10 9 9 10 11 12 12 13 12 11 9 9 11 12 11 10 11 12 12 11 8 8 8 8 8 9 11 11 10 9 8 7 7 7 7
15 14 14 14 14 14 13 13 15 16 17 17 18 19 19 20 20 20 19 19 19 19 18 17 16 15 15 15 14 14 14 15 15 15 15 14 13 11 11 11 10 10 10 12 14 13 12 11 10 9 9 10 11 12 11 10 11 10 9 7 6 6 7 8 9 9 8 6 6 6 7 8 10 11
9 9 10 10 11 12 12 13 13 14 14 15 16 16 16 17 17 17 17 16 16 16 15 13 12 12 13 13 12 11 11 11 12 12 13 13 13 13 13 12 12 12 13 13 12 11 10 10 9 9 9 9 10 10 10 9 9 9 9 9 7 6 5 6 6 5 4 4 5 7 8 11 12 11
5 6 6 7 8 9 10 11 11 11 11 11 11 11 12 12 12 12 11 11 10 10 10 8 8 8 9 9 9 8 8 9 11 11 11 13 13 13 13 13 13 13 13 12 11 10 10 9 9 9 8 8 9 10 9 9 9 8 8 8 7 6 5 5 5 4 4 4 6 8 10 13 13 11
3 4 5 6 7 8 8 8 7 7 6 7 7 8 9 9 9 9 8 8 8 8 7 6 6 6 5 6 7 7 8 9 10 11 11 11 12 12 12 12 13 13 13 13 12 10 9 8 8 8 8 9 10 10 10 10 9 8 8 8 7 7 7 7 7 6 5 5 6 9 11 13 12 11
3 4 5 6 6 6 6 5 5 4 5 5 6 6 6 6 6 6 6 7 6 4 3 3 3 4 6 7 8 7 8 9 9 9 10 11 12 13 12 12 12 11 11 11 9 7 8 9 8 9 10 12 12 11 11 11 10 10 10 9 8 8 8 9 8 7 7 8 8 10 11 12 12 11
5 5 6 6 5 5 5 5 5 4 4 4 3 2 2 3 3 4 3 4 4 3 4 4 3 4 6 8 7 6 7 9 9 10 11 13 14 13 12 11 11 10 10 10 8 8 10 11 11 11 12 13 11 10 10 11 10 8 8 8 8 8 8 9 10 9 10 10 10 11 12 12 12 11
6 6 6 6 6 6 6 6 5 4 4 2 1 0 1 1 2 3 3 5 6 6 7 8 6 5 6 7 7 6 7 8 9 10 11 11 11 11 11 11 11 11 11 11 9 11 13 13 12 12 10 9 7 7 8 10 10 8 7 6 6 7 8 9 10 10 11 11 12 12 13 13 12 13
8 7 7 7 7 7 7 6 5 4 3 2 1 1 0 1 1 1 2 4 6 7 8 9 8 6 7 8 8 9 10 10 11 12 12 12 13 14 15 15 14 12 11 9 8 10 12 11 9 8 7 5 5 6 8 10 11 11 10 8 7 8 8 8 8 9 11 12 13 14 14 14 13 14
9 8 8 8 9 9 8 7 5 4 4 3 2 2 2 2 1 1 1 2 3 4 5 6 7 8 8 9 9 10 13 14 13 13 13 14 14 15 15 15 14 11 9 8 7 7 7 6 5 5 6 6 6 7 8 9 9 10 10 10 10 10 10 10 9 8 10 12 13 14 15 14 14 13
10 10 9 9 10 9 8 7 5 5 5 4 3 3 3 3 2 1 0 1 2 2 2 3 5 7 9 9 11 12 13 13 11 10 10 10 11 11 11 11 9 8 7 7 7 7 8 7 6 6 6 6 7 8 8 8 8 9 9 10 11 10 11 11 11 10 10 11 11 13 14 14 13 13
11 11 11 11 11 10 9 7 6 6 6 5 4 4 3 3 3 3 1 0 1 1 2 3 4 6 7 8 8 8 8 8 7 8 8 8 9 9 8 7 7 7 8 8 9 10 9 7 6 5 5 6 7 7 7 7 6 6 7 8 9 10 10 11 11 11 11 11 11 12 12 12 12 12
13 12 11 12 11 10 9 9 8 8 7 6 5 4 2 2 2 3 3 1 1 1 0 1 2 3 3 3 3 2 2 3 4 5 6 7 8 8 7 7 8 9 10 10 10 9 7 5 6 7 7 7 7 6 6 6 6 6 6 7 7 8 9 11 11 11 12 11 11 11 11 11 10 11
13 12 12 12 12 12 11 11 10 9 7 7 7 5 3 2 1 3 4 3 2 2 1 1 1 2 2 3 3 3 3 2 1 2 3 4 5 6 6 7 7 7 7 6 5 5 3 4 6 7 7 7 7 6 5 5 6 6 6 7 7 7 8 10 11 11 11 11 10 10 10 10 10 10
12 12 12 12 13 12 12 13 12 9 8 8 7 5 5 4 3 1 2 2 1 1 0 0 1 3 4 5 6 7 6 5 4 3 3 3 3 3 3 4 5 5 4 3 3 3 2 3 4 5 5 6 6 5 4 4 5 5 6 7 7 7 8 9 9 9 10 10 10 11 12 12 11 11
12 13 13 13 13 13 14 14 14 11 9 8 7 6 5 5 4 3 2 2 1 1 1 1 3 5 6 7 8 8 7 6 6 6 6 6 6 5 5 5 4 4 3 2 2 2 3 3 3 3 4 4 4 3 3 3 3 4 4 5 6 6 6 7 8 9 9 9 10 11 12 13 13 13
12 14 15 14 15 15 15 15 14 12 11 9 7 6 6 6 6 5 4 4 3 3 3 3 4 6 7 7 7 6 5 5 4 4 5 6 7 7 7 7 7 6 4 3 2 2 2 2 2 1 1 1 1 2 2 1 2 3 4 4 4 4 4 5 7 8 9 10 11 12 12 13 14 14
14 15 16 16 16 17 17 16 15 14 13 11 10 8 7 6 6 6 6 5 5 5 5 6 6 7 7 6 5 4 2 1 1 2 3 4 6 6 7 7 7 7 6 4 3 3 4 4 3 3 2 2 2 2 2 1 1 3 4 4 3 2 2 3 5 7 9 11 13 13 14 14 14 15
15 16 16 17 18 18 17 17 16 15 14 14 13 12 10 8 7 6 6 7 8 7 8 8 9 8 7 6 5 3 2 2 3 3 4 5 5 5 6 6 6 6 5 4 4 3 3 3 3 2 2 2 2 2 1 1 2 3 4 4 4 3 3 3 4 6 9 11 13 15 15 15 16 17
16 17 17 18 19 19 18 17 17 17 16 15 15 14 13 11 10 8 7 7 8 9 9 10 11 11 9 7 6 5 5 4 4 5 6 7 7 7 7 6 5 4 3 2 2 2 3 3 2 3 3 2 2 2 2 3 3 4 4 4 4 4 3 3 4 6 7 9 12 14 15 16 17 17
16 17 18 18 20 20 19 18 18 18 17 17 16 15 14 13 12 10 8 7 8 8 8 10 12 12 11 9 8 7 6 6 6 7 7 8 8 9 9 9 8 7 6 5 5 5 4 4 3 4 4 3 3 3 4 4 5 5 5 5 5 4 4 4 4 6 7 8 9 11 13 15 16 15
18 18 19 19 21 21 21 20 20 19 19 18 17 15 14 13 12 12 11 11 10 10 10 10 12 13 12 11 10 9 8 8 8 8 9 9 9 9 10 10 11 11 11 10 9 9 9 8 8 7 7 7 7 7 6 6 7 8 7 6 5 5 5 5 5 6 6 6 7 8 11 12 13 14
Wind_Direction
276 277 275 273 271 270 268 265 265 266 267 268 270 269 270 274 282 293 297 296 294 285 273 261 248 339 342 342 342 338 326 317 307 293 288 290 290 293 308 325 328 326 333 330 282 235 229 224 217 221 230 237 243 247 251 253 252 253 255 257 259 256 252 253 256 259 262 265 265 264 263 262 261 261
275 275 274 273 272 269 266 263 261 262 262 262 265 267 267 270 274 283 291 293 291 281 268 276 286 296 306 311 318 329 329 323 319 309 298 293 292 293 296 312 326 321 320 323 305 258 230 225 224 226 231 238 244 247 250 253 254 256 257 258 260 258 255 257 261 263 264 265 266 266 267 266 264 263
275 274 273 273 273 270 266 263 260 259 259 258 259 262 264 268 271 274 279 283 282 274 272 278 285 293 295 292 295 306 317 321 324 319 308 300 299 298 292 295 313 318 309 301 296 283 257 238 233 235 238 240 244 248 252 255 258 260 260 262 262 262 262 264 267 267 267 270 271 271 271 271 271 271
276 276 275 274 275 273 270 268 266 264 261 257 256 257 261 265 268 268 268 272 275 275 277 278 279 285 287 283 284 291 298 305 315 317 311 305 302 303 297 293 300 311 310 299 288 284 278 262 250 247 246 246 246 248 251 253 257 259 260 262 263 265 266 268 270 271 272 276 277 275 274 274 276 277
275 277 278 275 272 270 272 272 269 266 263 259 256 255 257 261 265 267 267 270 273 275 277 281 284 282 278 277 279 285 289 292 299 307 311 309 305 300 294 291 293 301 309 308 298 289 283 274 266 260 255 252 252 251 251 251 252 254 256 258 261 264 266 267 269 270 272 274 275 275 278 279 279 277
274 273 273 271 270 270 270 269 265 261 259 257 255 253 255 257 259 262 266 270 272 273 274 280 287 286 278 271 271 279 285 283 283 291 302 309 308 297 287 285 287 291 299 304 302 296 288 278 273 269 264 262 262 262 260 258 256 255 256 258 260 262 264 265 266 267 269 270 271 274 277 278 278 277
273 269 266 268 270 271 269 265 262 258 254 253 254 253 252 254 255 257 261 265 268 272 275 277 281 284 280 274 272 274 275 271 271 277 283 292 298 293 285 282 282 286 291 295 295 291 288 282 276 273 273 274 275 275 274 272 267 263 262 263 263 264 266 268 270 271 271 271 272 274 275 276 279 279
273 267 264 264 267 269 269 268 265 262 257 255 256 255 253 253 254 254 258 262 265 269 273 276 277 278 279 280 280 275 269 266 268 271 275 279 285 288 287 285 283 285 288 291 290 285 282 281 277 275 276 278 280 281 280 280 278 277 274 272 271 271 273 275 277 277 277 275 275 275 275 278 279 278
271 265 263 263 265 268 270 270 267 263 259 256 257 257 255 253 252 252 255 258 260 262 268 273 275 276 278 281 282 278 274 272 272 274 276 277 279 282 287 289 288 286 285 286 286 282 278 276 274 273 272 273 277 279 278 277 277 278 279 278 276 274 274 276 277 278 279 278 276 274 274 276 279 279
266 263 262 263 265 267 268 269 265 260 257 254 255 256 254 252 251 250 252 253 253 256 261 267 271 275 278 280 280 280 278 278 278 280 282 282 281 283 287 289 289 287 284 280 279 278 277 274 272 271 270 271 275 279 279 275 272 273 275 278 279 277 275 275 275 275 276 275 274 274 275 276 278 279
260 261 262 262 265 268 271 272 268 263 260 256 253 252 251 250 251 250 250 251 253 254 257 263 268 273 277 278 279 279 279 279 280 283 287 287 286 285 286 287 287 285 282 279 276 273 272 272 272 272 273 275 276 279 282 278 273 272 274 276 278 278 276 274 273 272 272 272 273 273 272 270 271 274
257 260 261 263 267 271 272 272 269 266 265 262 258 254 251 251 252 252 251 252 254 257 260 264 268 271 274 276 277 278 278 280 282 284 285 284 283 281 279 279 282 282 281 281 279 275 271 269 270 270 273 275 276 278 283 284 281 278 276 273 272 273 273 272 271 270 271 272 274 276 275 272 268 267
256 258 261 264 269 270 268 267 267 266 267 266 262 257 254 253 254 255 254 253 255 259 263 266 270 272 274 276 277 279 280 281 282 280 279 279 279 278 274 273 276 280 283 284 282 280 276 271 269 269 271 274 277 279 281 283 284 284 282 275 268 267 267 269 268 268 269 270 272 277 282 282 278 271
253 254 259 264 268 268 265 265 267 268 268 268 265 262 260 258 256 255 256 258 260 263 266 269 271 273 275 277 279 280 280 280 279 278 278 278 277 276 274 274 274 278 283 285 284 283 279 273 269 269 271 273 275 277 278 279 279 282 287 287 280 270 266 265 266 267 269 272 275 279 282 285 286 284
249 251 257 260 262 263 263 266 268 269 269 269 269 267 265 264 262 260 260 261 261 263 265 268 270 274 278 281 282 282 282 281 279 277 276 275 275 276 276 277 279 282 283 283 282 282 279 276 273 272 274 274 272 273 275 277 279 280 284 290 290 280 269 265 265 267 269 272 275 276 278 284 287 284
245 250 254 256 257 259 262 267 269 269 268 270 273 273 272 270 270 269 267 265 264 264 266 268 270 274 279 282 284 284 284 281 278 274 273 274 276 278 279 282 285 285 283 282 281 279 276 275 274 274 276 276 274 271 271 274 281 283 284 289 292 286 275 267 265 268 271 273 274 273 273 278 280 277
245 248 251 255 257 259 264 268 270 270 271 273 275 275 275 274 272 272 270 269 269 270 272 273 273 275 278 281 282 282 281 280 279 278 277 278 279 280 282 284 284 283 283 284 284 283 280 278 277 277 276 276 275 273 274 276 280 283 284 286 288 287 282 275 268 267 270 273 274 275 274 274 274 274
247 248 251 256 258 261 265 267 270 272 275 276 276 275 275 273 272 272 272 271 271 273 275 277 277 276 275 276 278 278 279 281 284 283 282 281 279 279 279 280 280 282 284 287 289 289 288 288 289 289 288 285 282 282 284 284 283 283 283 282 280 282 285 286 280 273 272 274 276 277 277 275 273 272
251 254 257 261 263 264 266 268 272 274 274 274 275 275 275 276 277 277 276 274 274 275 276 277 277 276 273 272 275 278 282 286 287 287 286 285 283 282 282 283 284 286 287 289 291 292 292 294 298 299 298 297 294 294 297 297 294 291 290 287 281 278 279 283 284 281 278 277 278 278 278 276 274 274
261 264 266 267 268 267 269 271 271 272 272 273 273 273 273 274 276 279 278 275 274 274 275 276 276 274 272 272 274 281 288 291 290 288 287 286 286 287 287 290 292 293 295 297 296 297 298 298 299 298 298 298 298 300 303 302 298 294 294 295 291 285 281 279 279 279 277 274 274 277 277 276 277 280
267 270 272 271 270 269 268 268 268 271 273 271 270 271 271 271 273 277 278 276 274 272 270 270 270 268 269 271 275 280 286 288 287 285 285 285 287 289 291 293 296 297 300 303 303 303 303 302 298 295 295 296 297 298 299 296 292 291 294 296 295 293 289 282 276 276 275 273 273 275 274 276 281 283
270 272 274 274 272 268 265 264 266 269 267 263 265 269 273 275 278 279 278 276 276 274 271 268 266 265 267 270 274 279 282 283 280 279 281 282 284 287 289 293 297 298 301 307 309 306 306 306 303 298 298 299 299 299 298 295 292 293 297 299 300 300 293 281 273 272 271 270 272 273 271 271 275 274
273 273 273 273 270 265 262 260 257 256 256 260 267 271 273 274 276 277 277 277 277 275 273 271 269 267 268 270 273 275 275 273 271 274 278 281 282 284 289 294 298 303 308 313 312 306 304 302 298 296 300 301 299 299 302 302 303 304 306 307 309 308 298 280 271 269 268 268 267 266 264 260 257 251
274 271 268 265 262 259 256 249 242 246 253 260 265 268 271 274 276 278 280 280 278 276 275 273 272 272 271 271 271 269 267 265 265 268 274 279 282 281 281 284 289 294 299 299 297 296 295 293 292 293 295 296 296 299 306 310 312 316 320 320 314 308 299 278 269 272 274 269 257 250 249 239 222 210
267 261 256 253 250 248 246 244 243 248 255 260 265 270 275 278 280 281 280 277 275 274 273 272 271 269 268 268 267 266 265 262 262 268 273 278 278 271 267 271 276 279 281 284 286 286 282 280 284 288 291 296 299 303 308 312 313 316 321 322 311 300 290 275 270 272 269 255 237 232 227 206 189 188
249 245 243 241 241 243 247 252 256 260 264 268 272 275 277 278 279 280 279 275 272 271 271 270 267 263 262 263 264 267 269 266 265 268 271 272 270 269 273 278 280 280 283 285 286 284 279 279 282 284 290 297 297 300 306 308 309 310 310 306 299 292 285 276 271 268 251 226 220 221 210 194 187 193
222 224 230 235 240 246 251 259 265 268 271 273 274 276 278 279 279 278 277 273 266 260 258 259 262 265 264 261 259 260 264 264 264 265 266 269 273 277 282 283 283 285 288 289 291 290 287 285 282 282 286 290 288 292 297 296 295 299 297 289 280 270 262 257 247 236 229 224 219 212 203 197 199 207
221 225 229 235 242 249 254 260 263 264 267 271 276 281 281 278 275 272 268 265 260 255 255 265 271 263 252 257 263 259 255 258 264 269 270 270 271 275 279 283 286 290 292 292 291 288 284 280 280 280 279 274 272 277 284 286 285 288 291 287 275 258 247 242 234 219 209 215 215 208 205 207 212 222
244 244 244 247 250 250 249 248 244 246 258 267 274 280 277 272 276 277 269 262 260 257 257 286 290 250 236 256 265 253 249 260 267 268 267 266 268 275 283 286 285 286 292 292 281 271 276 280 281 280 277 275 273 270 273 278 275 271 271 269 265 259 244 231 226 213 199 202 207 208 212 217 224 233
254 256 257 255 249 240 234 231 231 239 253 259 263 278 287 282 281 280 265 246 238 225 203 205 228 243 250 264 271 250 244 260 265 261 262 267 274 283 292 293 287 284 291 291 269 261 275 279 275 272 268 270 273 269 264 270 273 271 263 245 240 253 248 233 228 221 208 204 207 210 217 225 231 237
255 254 251 243 232 227 227 227 229 237 240 232 209 185 331 308 280 260 243 226 226 232 223 212 220 253 263 268 280 274 260 259 261 261 262 267 275 285 292 298 299 295 293 293 283 280 285 283 278 277 270 261 268 277 271 266 264 266 268 249 237 250 250 238 235 231 220 213 213 217 223 229 234 237
261 253 242 232 226 225 226 227 227 227 217 193 157 141 104 39 15 268 244 229 227 236 231 213 211 236 252 249 255 266 269 268 266 269 276 284 290 291 288 290 295 294 291 296 298 296 297 292 281 278 274 260 266 286 289 277 262 255 256 253 248 252 253 248 244 235 226 222 221 225 230 234 235 238
268 256 240 229 226 227 230 230 225 213 196 177 166 159 138 102 73 55 284 252 231 235 236 215 209 226 245 247 246 257 269 274 273 275 281 285 285 283 280 279 284 287 287 291 291 290 299 299 274 258 264 267 270 280 289 288 276 266 262 257 252 251 250 251 248 237 231 231 231 233 238 239 238 238
272 262 246 236 234 234 234 230 217 201 186 172 166 161 143 117 84 65 339 266 243 234 242 231 218 223 234 244 248 253 260 264 265 267 272 271 269 273 275 274 276 281 280 278 279 282 288 287 271 252 252 261 269 275 280 281 276 269 265 264 261 254 244 241 239 233 230 234 237 240 243 241 237 234
270 265 252 243 240 238 234 225 207 193 185 176 169 164 150 123 88 64 50 300 247 238 234 229 224 224 228 236 243 245 245 245 249 257 266 269 269 273 277 276 275 279 277 275 280 288 289 282 265 253 254 262 268 269 269 270 265 259 257 261 262 256 245 237 231 227 228 231 234 235 233 227 225 228
272 265 251 243 242 241 234 219 205 200 199 196 190 184 174 138 85 60 44 52 98 113 178 185 192 208 217 221 220 211 211 229 250 262 271 273 269 268 271 272 271 273 274 273 277 282 277 257 251 257 262 265 265 260 258 258 253 248 251 257 260 260 254 243 232 224 224 225 225 226 223 217 217 224
272 261 246 239 241 242 232 216 209 211 212 209 207 204 211 218 114 53 38 41 85 96 78 88 118 130 142 144 132 124 127 133 172 269 280 284 280 275 276 279 281 283 285 284 288 291 276 249 252 255 251 248 247 244 247 260 262 259 261 261 261 262 260 251 240 231 225 220 215 215 217 215 212 216
266 255 244 238 237 236 227 217 215 216 213 212 216 219 227 236 243 356 27 32 62 100 44 51 123 124 125 123 117 110 107 102 89 71 52 28 358 331 311 306 309 311 313 319 321 311 290 267 260 251 236 233 237 239 248 271 284 285 282 277 270 264 258 253 247 236 224 216 210 210 213 213 210 210
261 253 246 238 231 226 221 218 218 219 218 219 226 229 231 239 249 264 312 338 309 256 245 206 154 139 132 125 118 111 102 93 82 69 58 47 36 29 23 12 2 356 346 336 321 299 279 268 263 255 243 240 249 266 286 303 310 305 301 297 287 274 260 250 244 234 220 210 208 211 215 217 215 214
256 250 246 239 229 222 219 218 220 222 224 227 231 231 229 238 253 265 277 291 287 259 236 213 177 155 145 136 128 120 108 93 78 63 51 41 34 31 27 20 17 14 5 351 348 348 336 313 304 311 318 320 338 351 355 345 328 326 323 313 300 285 260 245 242 238 227 215 210 212 218 222 222 222
253 247 242 239 235 229 224 223 225 229 232 233 235 235 233 241 257 264 262 261 261 251 235 219 197 178 168 162 158 154 145 111 50 27 20 16 16 16 16 16 16 15 14 19 37 55 60 58 56 53 49 42 28 18 21 19 342 346 343 333 320 304 275 254 248 247 240 228 220 217 219 222 225 226
254 248 241 237 237 236 232 228 229 233 238 240 239 240 240 246 255 259 255 251 250 246 237 224 210 199 193 192 197 209 233 266 294 313 320 325 332 340 348 356 2 8 18 34 48 54 53 50 43 33 21 9 351 341 332 306 313 330 333 331 330 325 307 283 264 258 250 240 234 230 226 223 223 224
256 252 245 238 237 237 236 232 231 234 240 243 243 243 244 247 252 257 261 260 256 251 243 231 221 214 209 210 223 243 261 272 284 293 298 302 304 303 306 312 319 328 338 346 343 345 355 1 2 1 356 343 326 318 304 286 288 300 310 316 320 323 320 308 288 274 262 251 245 242 236 230 227 224
254 254 250 243 239 238 237 235 234 235 239 242 244 245 245 247 251 256 263 266 263 258 251 239 228 221 218 222 238 255 265 273 282 287 288 288 287 287 287 285 284 285 285 283 281 285 292 299 306 314 318 313 309 309 303 292 287 286 288 293 299 305 309 308 298 288 279 266 259 253 245 239 233 226
252 252 250 245 241 239 238 236 234 234 236 238 240 242 244 245 248 253 259 264 267 265 257 242 228 222 222 231 243 254 260 268 276 280 283 285 287 288 288 285 280 276 273 270 270 272 273 273 274 279 285 289 289 289 291 293 291 287 283 279 276 279 290 295 293 289 284 273 263 259 253 246 240 235